N420GL KMKE-KEYW

Flight info

Callsign N420GL
Flight time N/A
Altitude 29000
Route UECKR6 SAMPL BWG/N0261F310 HEVVN SABEE KRAKN1
Aircraft BE20/L-SBGRY/S

Departure

Time 2026-04-24 21:41
Airport General Mitchell International Airport (KMKE)

Arrival

Time N/A
Airport Key West International Airport (KEYW)
Time Latitude Longitude Altitude Speed Heading
2026-04-24 21:32 42.95821 -87.89798 681 ft 0 kts 358°
2026-04-24 21:36 42.95823 -87.89783 678 ft 7 kts 123°
2026-04-24 21:36 42.95774 -87.89691 681 ft 17 kts 122°
2026-04-24 21:36 42.95689 -87.89550 683 ft 20 kts 163°
2026-04-24 21:37 42.95553 -87.89482 683 ft 20 kts 181°
2026-04-24 21:37 42.95417 -87.89505 683 ft 22 kts 184°
2026-04-24 21:37 42.95253 -87.89537 683 ft 26 kts 191°
2026-04-24 21:37 42.95077 -87.89571 683 ft 23 kts 189°
2026-04-24 21:38 42.94910 -87.89595 683 ft 26 kts 186°
2026-04-24 21:38 42.94715 -87.89631 683 ft 30 kts 186°
2026-04-24 21:38 42.94542 -87.89658 683 ft 4 kts 206°
2026-04-24 21:38 42.94578 -87.89661 682 ft 11 kts 16°
2026-04-24 21:39 42.94626 -87.89576 683 ft 15 kts 102°
2026-04-24 21:39 42.94608 -87.89401 683 ft 22 kts 92°
2026-04-24 21:39 42.94649 -87.89189 682 ft 25 kts 77°
2026-04-24 21:39 42.94586 -87.89112 683 ft 16 kts 200°
2026-04-24 21:40 42.94548 -87.89151 683 ft 0 kts 249°
2026-04-24 21:40 42.94497 -87.89364 684 ft 55 kts 252°
2026-04-24 21:40 42.94318 -87.90105 698 ft 105 kts 256°
2026-04-24 21:41 42.94069 -87.91106 1108 ft 112 kts 251°
2026-04-24 21:41 42.93735 -87.92174 1438 ft 133 kts 251°
2026-04-24 21:41 42.93324 -87.93360 1880 ft 143 kts 252°
2026-04-24 21:41 42.92646 -87.94347 2365 ft 153 kts 209°
2026-04-24 21:42 42.91548 -87.94628 2713 ft 173 kts 175°
2026-04-24 21:42 42.90541 -87.93761 3189 ft 179 kts 118°
2026-04-24 21:42 42.89989 -87.92245 3656 ft 180 kts 123°
2026-04-24 21:42 42.89199 -87.90963 4275 ft 174 kts 135°
2026-04-24 21:43 42.88336 -87.89807 4825 ft 174 kts 137°
2026-04-24 21:43 42.87466 -87.88647 5339 ft 174 kts 137°
2026-04-24 21:43 42.86599 -87.87478 5845 ft 177 kts 137°
2026-04-24 21:43 42.85719 -87.86289 6330 ft 180 kts 137°
2026-04-24 21:44 42.84831 -87.85090 6836 ft 179 kts 137°
2026-04-24 21:44 42.83950 -87.83900 7322 ft 181 kts 137°
2026-04-24 21:44 42.83050 -87.82688 7825 ft 183 kts 138°
2026-04-24 21:44 42.82142 -87.81463 8361 ft 183 kts 138°
2026-04-24 21:45 42.81233 -87.80238 8911 ft 185 kts 138°
2026-04-24 21:45 42.80312 -87.78997 9453 ft 187 kts 139°
2026-04-24 21:45 42.79380 -87.77743 9979 ft 189 kts 139°
2026-04-24 21:45 42.78442 -87.76480 10494 ft 191 kts 139°
2026-04-24 21:46 42.77492 -87.75203 11005 ft 192 kts 139°
2026-04-24 21:46 42.76540 -87.73922 11536 ft 193 kts 139°
2026-04-24 21:46 42.75580 -87.72630 12049 ft 195 kts 139°
2026-04-24 21:46 42.74624 -87.71348 12559 ft 196 kts 139°
2026-04-24 21:47 42.73647 -87.70035 13066 ft 198 kts 139°
2026-04-24 21:47 42.72984 -87.69145 13394 ft 199 kts 139°
2026-04-24 21:47 42.71672 -87.67385 13955 ft 200 kts 139°
2026-04-24 21:47 42.70682 -87.66057 14361 ft 200 kts 140°
2026-04-24 21:48 42.69623 -87.64869 14729 ft 195 kts 158°
2026-04-24 21:48 42.68375 -87.64297 15161 ft 186 kts 178°
2026-04-24 21:48 42.67101 -87.64192 15577 ft 183 kts 182°
2026-04-24 21:48 42.65831 -87.64092 15991 ft 183 kts 182°
2026-04-24 21:49 42.64564 -87.63997 16406 ft 182 kts 182°
2026-04-24 21:49 42.63299 -87.63903 16823 ft 181 kts 182°
2026-04-24 21:49 42.62037 -87.63810 17230 ft 181 kts 182°
2026-04-24 21:49 42.60782 -87.63718 17638 ft 181 kts 182°
2026-04-24 21:50 42.59529 -87.63626 18038 ft 180 kts 182°
2026-04-24 21:50 42.58293 -87.63536 18377 ft 179 kts 181°
2026-04-24 21:50 42.57050 -87.63444 18710 ft 179 kts 182°
2026-04-24 21:50 42.55802 -87.63353 19027 ft 180 kts 182°
2026-04-24 21:51 42.54548 -87.63261 19337 ft 180 kts 182°
2026-04-24 21:51 42.53716 -87.63200 19544 ft 181 kts 182°
2026-04-24 21:51 42.52455 -87.63103 19875 ft 182 kts 181°
2026-04-24 21:51 42.51193 -87.62999 20314 ft 182 kts 182°
2026-04-24 21:52 42.49927 -87.62896 20721 ft 183 kts 182°
2026-04-24 21:52 42.48656 -87.62794 21128 ft 183 kts 182°
2026-04-24 21:52 42.47377 -87.62692 21530 ft 184 kts 182°
2026-04-24 21:52 42.46093 -87.62589 21929 ft 185 kts 182°
2026-04-24 21:53 42.44803 -87.62485 22324 ft 186 kts 182°
2026-04-24 21:53 42.43510 -87.62382 22711 ft 187 kts 182°
2026-04-24 21:53 42.42220 -87.62398 23046 ft 184 kts 194°
2026-04-24 21:53 42.40960 -87.62686 23421 ft 184 kts 193°
2026-04-24 21:54 42.39705 -87.62952 23716 ft 185 kts 193°
2026-04-24 21:54 42.38421 -87.63223 24013 ft 186 kts 193°
2026-04-24 21:54 42.37159 -87.63491 24302 ft 185 kts 193°
2026-04-24 21:54 42.35866 -87.63766 24592 ft 186 kts 193°
2026-04-24 21:55 42.34586 -87.64038 24872 ft 187 kts 193°
2026-04-24 21:55 42.33301 -87.64312 25146 ft 187 kts 193°
2026-04-24 21:55 42.32010 -87.64568 25410 ft 189 kts 188°
2026-04-24 21:55 42.30687 -87.64281 25684 ft 200 kts 167°
2026-04-24 21:56 42.29399 -87.63572 25903 ft 203 kts 166°
2026-04-24 21:56 42.28093 -87.62841 26162 ft 204 kts 166°
2026-04-24 21:56 42.26779 -87.62112 26416 ft 204 kts 166°
2026-04-24 21:56 42.25457 -87.61384 26663 ft 205 kts 166°
2026-04-24 21:57 42.24132 -87.60652 26906 ft 206 kts 166°
2026-04-24 21:57 42.22801 -87.59918 27141 ft 207 kts 167°
2026-04-24 21:57 42.21466 -87.59181 27375 ft 207 kts 167°
2026-04-24 21:57 42.20124 -87.58441 27602 ft 208 kts 167°
2026-04-24 21:58 42.18781 -87.57701 27821 ft 209 kts 167°
2026-04-24 21:58 42.17448 -87.56967 28047 ft 210 kts 167°
2026-04-24 21:58 42.16098 -87.56223 28263 ft 209 kts 167°
2026-04-24 21:58 42.14747 -87.55479 28475 ft 210 kts 167°
2026-04-24 21:59 42.13394 -87.54735 28670 ft 210 kts 167°
2026-04-24 21:59 42.12032 -87.53987 28797 ft 214 kts 167°
2026-04-24 21:59 42.10627 -87.53220 28807 ft 221 kts 167°
2026-04-24 21:59 42.09178 -87.52425 28812 ft 227 kts 166°
2026-04-24 22:00 42.07693 -87.51608 28808 ft 233 kts 166°
2026-04-24 22:00 42.06202 -87.50787 28807 ft 234 kts 166°
2026-04-24 22:00 42.04694 -87.49958 28807 ft 234 kts 166°
2026-04-24 22:00 42.03189 -87.49133 28804 ft 234 kts 166°
2026-04-24 22:01 42.01683 -87.48308 28798 ft 235 kts 166°
2026-04-24 22:01 42.00162 -87.47477 28802 ft 238 kts 166°
2026-04-24 22:01 41.98619 -87.46633 28799 ft 240 kts 166°
2026-04-24 22:01 41.97041 -87.46043 28804 ft 233 kts 178°
2026-04-24 22:02 41.95431 -87.45699 28792 ft 235 kts 178°
2026-04-24 22:02 41.93813 -87.45334 28800 ft 236 kts 178°
2026-04-24 22:02 41.92188 -87.44968 28806 ft 237 kts 178°
2026-04-24 22:02 41.90556 -87.44605 28804 ft 238 kts 178°
2026-04-24 22:03 41.88916 -87.44240 28803 ft 239 kts 178°
2026-04-24 22:03 41.87272 -87.43875 28802 ft 240 kts 178°
2026-04-24 22:03 41.85627 -87.43509 28809 ft 240 kts 178°
2026-04-24 22:03 41.83999 -87.43147 28810 ft 240 kts 178°
2026-04-24 22:04 41.82351 -87.42780 28815 ft 240 kts 178°
2026-04-24 22:04 41.80699 -87.42413 28818 ft 241 kts 178°
2026-04-24 22:04 41.79043 -87.42046 28820 ft 241 kts 178°
2026-04-24 22:04 41.77386 -87.41678 28815 ft 241 kts 178°
2026-04-24 22:05 41.75733 -87.41312 28815 ft 241 kts 178°
2026-04-24 22:05 41.74076 -87.40945 28800 ft 241 kts 178°
2026-04-24 22:05 41.72417 -87.40577 28801 ft 241 kts 178°
2026-04-24 22:05 41.70756 -87.40209 28803 ft 241 kts 178°
2026-04-24 22:06 41.69120 -87.39848 28804 ft 242 kts 178°
2026-04-24 22:06 41.67458 -87.39480 28803 ft 242 kts 178°
2026-04-24 22:06 41.65794 -87.39112 28803 ft 242 kts 178°
2026-04-24 22:06 41.64137 -87.38743 28809 ft 241 kts 178°
2026-04-24 22:07 41.62479 -87.38380 28807 ft 241 kts 178°
2026-04-24 22:07 41.60818 -87.38014 28805 ft 241 kts 178°
2026-04-24 22:07 41.59160 -87.37648 28804 ft 241 kts 178°
2026-04-24 22:07 41.57523 -87.37287 28805 ft 241 kts 178°
2026-04-24 22:08 41.55852 -87.36919 28807 ft 243 kts 178°
2026-04-24 22:08 41.54172 -87.36550 28807 ft 244 kts 178°
2026-04-24 22:08 41.52501 -87.36181 28804 ft 243 kts 178°
2026-04-24 22:08 41.50857 -87.35818 28805 ft 242 kts 178°
2026-04-24 22:09 41.49197 -87.35454 28801 ft 242 kts 178°
2026-04-24 22:09 41.47507 -87.35083 28790 ft 242 kts 178°
2026-04-24 22:09 41.45865 -87.34722 28792 ft 242 kts 178°
2026-04-24 22:09 41.44207 -87.34358 28792 ft 242 kts 178°
2026-04-24 22:10 41.42549 -87.33994 28788 ft 242 kts 178°
2026-04-24 22:10 41.40888 -87.33630 28791 ft 241 kts 178°
2026-04-24 22:10 41.39227 -87.33266 28794 ft 241 kts 178°
2026-04-24 22:10 41.37567 -87.32903 28794 ft 241 kts 178°
2026-04-24 22:11 41.35910 -87.32542 28797 ft 242 kts 178°
2026-04-24 22:11 41.34246 -87.32175 28794 ft 243 kts 178°
2026-04-24 22:11 41.32577 -87.31810 28795 ft 243 kts 178°
2026-04-24 22:11 41.30922 -87.31448 28803 ft 243 kts 177°
2026-04-24 22:12 41.29241 -87.31082 28804 ft 245 kts 177°
2026-04-24 22:12 41.27543 -87.30711 28806 ft 247 kts 177°
2026-04-24 22:12 41.25868 -87.30345 28807 ft 247 kts 177°
2026-04-24 22:12 41.24149 -87.29970 28809 ft 247 kts 177°
2026-04-24 22:13 41.22471 -87.29604 28809 ft 247 kts 177°
2026-04-24 22:13 41.20772 -87.29234 28810 ft 247 kts 177°
2026-04-24 22:13 41.19072 -87.28863 28810 ft 248 kts 177°
2026-04-24 22:13 41.17372 -87.28493 28810 ft 247 kts 177°
2026-04-24 22:14 41.15671 -87.28123 28811 ft 247 kts 177°
2026-04-24 22:14 41.13968 -87.27753 28817 ft 248 kts 177°
2026-04-24 22:14 41.12266 -87.27383 28816 ft 248 kts 177°
2026-04-24 22:14 41.10567 -87.27013 28816 ft 247 kts 177°
2026-04-24 22:15 41.08867 -87.26644 28812 ft 247 kts 177°
2026-04-24 22:15 41.07167 -87.26275 28809 ft 248 kts 177°
2026-04-24 22:15 41.05464 -87.25907 28811 ft 249 kts 177°
2026-04-24 22:15 41.03745 -87.25534 28816 ft 251 kts 177°
2026-04-24 22:16 41.02040 -87.25166 28809 ft 252 kts 178°
2026-04-24 22:16 41.00317 -87.24794 28821 ft 250 kts 177°
2026-04-24 22:16 40.98598 -87.24417 28821 ft 250 kts 177°
2026-04-24 22:16 40.96877 -87.24046 28823 ft 251 kts 177°
2026-04-24 22:17 40.95153 -87.23674 28824 ft 251 kts 177°
2026-04-24 22:17 40.93429 -87.23302 28825 ft 251 kts 177°
2026-04-24 22:17 40.91705 -87.22929 28825 ft 251 kts 177°
2026-04-24 22:17 40.89980 -87.22556 28826 ft 251 kts 177°
2026-04-24 22:18 40.88255 -87.22184 28823 ft 251 kts 177°
2026-04-24 22:18 40.86529 -87.21812 28811 ft 251 kts 176°
2026-04-24 22:18 40.84819 -87.21443 28809 ft 252 kts 176°
2026-04-24 22:18 40.83091 -87.21071 28809 ft 252 kts 176°
2026-04-24 22:19 40.81359 -87.20699 28812 ft 252 kts 176°
2026-04-24 22:19 40.79626 -87.20326 28812 ft 252 kts 176°
2026-04-24 22:19 40.77889 -87.19952 28812 ft 252 kts 177°
2026-04-24 22:19 40.76154 -87.19579 28813 ft 252 kts 177°
2026-04-24 22:20 40.74416 -87.19205 28814 ft 253 kts 176°
2026-04-24 22:20 40.72679 -87.18832 28814 ft 253 kts 177°
2026-04-24 22:20 40.70941 -87.18459 28815 ft 253 kts 176°
2026-04-24 22:20 40.69199 -87.18086 28815 ft 253 kts 176°
2026-04-24 22:21 40.67459 -87.17713 28818 ft 253 kts 176°
2026-04-24 22:21 40.65741 -87.17345 28824 ft 253 kts 177°
2026-04-24 22:21 40.63978 -87.16967 28826 ft 253 kts 177°
2026-04-24 22:21 40.62258 -87.16598 28827 ft 253 kts 177°
2026-04-24 22:22 40.60517 -87.16226 28831 ft 254 kts 177°
2026-04-24 22:22 40.58775 -87.15854 28832 ft 254 kts 177°
2026-04-24 22:22 40.57032 -87.15481 28833 ft 254 kts 177°
2026-04-24 22:22 40.55287 -87.15108 28835 ft 254 kts 176°
2026-04-24 22:23 40.53542 -87.14736 28836 ft 254 kts 176°
2026-04-24 22:23 40.51800 -87.14364 28838 ft 254 kts 176°
2026-04-24 22:23 40.50056 -87.13992 28839 ft 254 kts 176°
2026-04-24 22:23 40.48310 -87.13620 28839 ft 253 kts 177°
2026-04-24 22:24 40.46570 -87.13249 28840 ft 253 kts 177°
2026-04-24 22:24 40.44847 -87.12882 28841 ft 253 kts 177°
2026-04-24 22:24 40.43106 -87.12512 28841 ft 253 kts 176°
2026-04-24 22:24 40.41361 -87.12140 28839 ft 253 kts 176°
2026-04-24 22:25 40.39622 -87.11771 28840 ft 253 kts 176°
2026-04-24 22:25 40.37878 -87.11400 28840 ft 253 kts 176°
2026-04-24 22:25 40.36157 -87.11035 28839 ft 254 kts 176°
2026-04-24 22:25 40.34411 -87.10664 28839 ft 254 kts 176°
2026-04-24 22:26 40.32668 -87.10294 28839 ft 254 kts 176°
2026-04-24 22:26 40.30926 -87.09925 28838 ft 254 kts 176°
2026-04-24 22:26 40.29182 -87.09555 28837 ft 254 kts 176°
2026-04-24 22:26 40.27439 -87.09186 28836 ft 254 kts 176°
2026-04-24 22:27 40.25697 -87.08817 28835 ft 254 kts 176°
2026-04-24 22:27 40.23952 -87.08448 28834 ft 254 kts 176°
2026-04-24 22:27 40.22202 -87.08078 28833 ft 254 kts 176°
2026-04-24 22:27 40.20484 -87.07714 28834 ft 253 kts 176°
2026-04-24 22:28 40.18738 -87.07346 28831 ft 253 kts 176°
2026-04-24 22:28 40.16992 -87.06977 28829 ft 254 kts 176°
2026-04-24 22:28 40.15250 -87.06610 28828 ft 254 kts 176°
2026-04-24 22:28 40.13506 -87.06242 28827 ft 254 kts 176°
2026-04-24 22:29 40.10016 -87.05506 28825 ft 254 kts 176°
2026-04-24 22:29 40.08269 -87.05138 28823 ft 254 kts 176°
2026-04-24 22:29 40.06543 -87.04775 28848 ft 254 kts 176°
2026-04-24 22:30 40.04795 -87.04407 28850 ft 254 kts 176°
2026-04-24 22:30 40.03047 -87.04039 28852 ft 254 kts 176°
2026-04-24 22:30 40.01392 -87.03692 28853 ft 254 kts 176°
2026-04-24 22:30 39.99600 -87.03315 28853 ft 254 kts 176°
2026-04-24 22:31 39.97857 -87.02949 28854 ft 253 kts 176°
2026-04-24 22:31 39.96117 -87.02584 28854 ft 253 kts 176°
2026-04-24 22:31 39.94375 -87.02218 28853 ft 253 kts 176°
2026-04-24 22:31 39.92637 -87.01854 28853 ft 253 kts 176°
2026-04-24 22:32 39.90893 -87.01489 28852 ft 253 kts 176°
2026-04-24 22:32 39.89153 -87.01124 28851 ft 253 kts 176°
2026-04-24 22:32 39.87412 -87.00760 28850 ft 253 kts 176°
2026-04-24 22:32 39.85673 -87.00396 28848 ft 253 kts 176°
2026-04-24 22:33 39.83932 -87.00032 28847 ft 253 kts 176°
2026-04-24 22:33 39.82191 -86.99668 28844 ft 253 kts 176°
2026-04-24 22:33 39.80449 -86.99305 28844 ft 253 kts 177°
2026-04-24 22:33 39.78708 -86.98940 28842 ft 253 kts 177°
2026-04-24 22:34 39.76965 -86.98577 28841 ft 254 kts 177°
2026-04-24 22:34 39.75222 -86.98213 28843 ft 253 kts 177°
2026-04-24 22:34 39.73481 -86.97850 28845 ft 253 kts 177°
2026-04-24 22:34 39.71741 -86.97488 28845 ft 253 kts 176°
2026-04-24 22:35 39.70021 -86.97130 28848 ft 254 kts 176°
2026-04-24 22:35 39.68275 -86.96767 28848 ft 254 kts 176°
2026-04-24 22:35 39.66532 -86.96404 28850 ft 254 kts 176°
2026-04-24 22:35 39.64788 -86.96042 28850 ft 254 kts 177°
2026-04-24 22:36 39.63046 -86.95679 28852 ft 254 kts 177°
2026-04-24 22:36 39.61299 -86.95316 28853 ft 254 kts 177°
2026-04-24 22:36 39.59551 -86.94954 28854 ft 255 kts 176°
2026-04-24 22:36 39.57792 -86.94591 28830 ft 256 kts 176°
2026-04-24 22:37 39.56024 -86.94224 28850 ft 258 kts 176°
2026-04-24 22:37 39.54242 -86.93852 28852 ft 261 kts 176°
2026-04-24 22:37 39.52443 -86.93480 28848 ft 262 kts 176°
2026-04-24 22:37 39.50634 -86.93106 28849 ft 263 kts 176°
2026-04-24 22:38 39.49436 -86.92857 28839 ft 263 kts 176°
2026-04-24 22:38 39.47627 -86.92482 28846 ft 263 kts 176°
2026-04-24 22:38 39.45817 -86.92108 28846 ft 263 kts 176°
2026-04-24 22:38 39.43420 -86.91613 28838 ft 263 kts 176°
2026-04-24 22:39 39.41615 -86.91240 28836 ft 263 kts 176°
2026-04-24 22:39 39.40396 -86.90989 28839 ft 263 kts 176°
2026-04-24 22:39 39.38589 -86.90615 28836 ft 262 kts 176°
2026-04-24 22:39 39.36785 -86.90244 28828 ft 262 kts 176°
2026-04-24 22:40 39.34981 -86.89872 28830 ft 262 kts 176°
2026-04-24 22:40 39.33177 -86.89500 28829 ft 263 kts 176°
2026-04-24 22:40 39.31393 -86.89133 28833 ft 263 kts 176°
2026-04-24 22:40 39.29578 -86.88759 28830 ft 263 kts 176°
2026-04-24 22:41 39.27768 -86.88387 28834 ft 263 kts 176°
2026-04-24 22:41 39.25958 -86.88015 28830 ft 264 kts 176°
2026-04-24 22:41 39.24146 -86.87643 28838 ft 264 kts 176°
2026-04-24 22:41 39.22326 -86.87269 28839 ft 265 kts 176°
2026-04-24 22:42 39.20505 -86.86895 28840 ft 264 kts 176°
2026-04-24 22:42 39.18710 -86.86526 28840 ft 264 kts 176°
2026-04-24 22:42 39.16894 -86.86155 28841 ft 264 kts 176°
2026-04-24 22:42 39.15072 -86.85782 28842 ft 265 kts 176°
2026-04-24 22:43 39.13248 -86.85408 28845 ft 265 kts 176°
2026-04-24 22:43 39.11426 -86.85035 28844 ft 265 kts 176°
2026-04-24 22:43 39.09603 -86.84662 28845 ft 265 kts 176°
2026-04-24 22:43 39.07778 -86.84289 28832 ft 265 kts 176°
2026-04-24 22:44 39.05979 -86.83921 28838 ft 265 kts 176°
2026-04-24 22:44 39.04150 -86.83547 28839 ft 265 kts 176°
2026-04-24 22:44 39.02325 -86.83175 28839 ft 266 kts 176°
2026-04-24 22:44 39.00496 -86.82801 28839 ft 266 kts 176°
2026-04-24 22:45 38.98671 -86.82429 28839 ft 266 kts 176°
2026-04-24 22:45 38.96845 -86.82057 28839 ft 266 kts 176°
2026-04-24 22:45 38.95015 -86.81684 28839 ft 266 kts 176°
2026-04-24 22:45 38.93184 -86.81311 28838 ft 266 kts 176°
2026-04-24 22:46 38.91357 -86.80939 28840 ft 266 kts 176°
2026-04-24 22:46 38.89525 -86.80566 28842 ft 266 kts 176°
2026-04-24 22:46 38.87699 -86.80195 28842 ft 266 kts 176°
2026-04-24 22:46 38.85869 -86.79823 28843 ft 266 kts 176°
2026-04-24 22:47 38.84037 -86.79451 28839 ft 266 kts 175°
2026-04-24 22:47 38.82206 -86.79079 28840 ft 266 kts 176°
2026-04-24 22:47 38.80375 -86.78708 28840 ft 267 kts 176°
2026-04-24 22:47 38.78569 -86.78341 28841 ft 266 kts 175°
2026-04-24 22:48 38.76732 -86.77968 28842 ft 267 kts 176°
2026-04-24 22:48 38.74893 -86.77596 28842 ft 267 kts 176°
2026-04-24 22:48 38.73056 -86.77224 28843 ft 267 kts 176°
2026-04-24 22:48 38.71218 -86.76852 28844 ft 267 kts 176°
2026-04-24 22:49 38.69380 -86.76480 28846 ft 268 kts 175°
2026-04-24 22:49 38.67539 -86.76108 28846 ft 268 kts 176°
2026-04-24 22:49 38.65696 -86.75736 28852 ft 268 kts 176°
2026-04-24 22:49 38.63853 -86.75363 28852 ft 268 kts 176°
2026-04-24 22:50 38.62033 -86.74996 28853 ft 268 kts 176°
2026-04-24 22:50 38.60190 -86.74624 28855 ft 268 kts 177°
2026-04-24 22:50 38.58350 -86.74253 28857 ft 267 kts 177°
2026-04-24 22:50 38.56512 -86.73882 28858 ft 267 kts 177°
2026-04-24 22:51 38.54678 -86.73513 28858 ft 266 kts 177°
2026-04-24 22:51 38.52844 -86.73144 28858 ft 266 kts 177°
2026-04-24 22:51 38.51011 -86.72775 28857 ft 266 kts 177°
2026-04-24 22:51 38.49177 -86.72406 28857 ft 266 kts 177°
2026-04-24 22:52 38.47367 -86.72042 28857 ft 266 kts 177°
2026-04-24 22:52 38.45536 -86.71674 28858 ft 266 kts 177°
2026-04-24 22:52 38.43701 -86.71305 28857 ft 266 kts 177°
2026-04-24 22:52 38.41871 -86.70938 28857 ft 266 kts 177°
2026-04-24 22:53 38.40041 -86.70571 28859 ft 266 kts 177°
2026-04-24 22:53 38.38212 -86.70204 28859 ft 266 kts 177°
2026-04-24 22:53 38.36385 -86.69838 28858 ft 266 kts 177°
2026-04-24 22:53 38.34557 -86.69472 28857 ft 266 kts 177°
2026-04-24 22:54 38.32732 -86.69107 28855 ft 266 kts 177°
2026-04-24 22:54 38.30905 -86.68741 28855 ft 266 kts 177°
2026-04-24 22:54 38.29076 -86.68375 28856 ft 266 kts 177°
2026-04-24 22:54 38.27249 -86.68010 28856 ft 266 kts 177°
2026-04-24 22:55 38.25423 -86.67645 28858 ft 266 kts 177°
2026-04-24 22:55 38.23595 -86.67280 28857 ft 266 kts 177°
2026-04-24 22:55 38.21762 -86.66914 28858 ft 266 kts 177°
2026-04-24 22:55 38.19955 -86.66554 28858 ft 266 kts 177°
2026-04-24 22:56 38.18126 -86.66188 28855 ft 265 kts 177°
2026-04-24 22:56 38.16297 -86.65824 28855 ft 266 kts 177°
2026-04-24 22:56 38.14469 -86.65460 28855 ft 266 kts 177°
2026-04-24 22:56 38.12643 -86.65096 28849 ft 266 kts 177°
2026-04-24 22:57 38.10813 -86.64732 28851 ft 266 kts 177°
2026-04-24 22:57 38.08988 -86.64369 28851 ft 266 kts 177°
2026-04-24 22:57 38.07157 -86.64006 28854 ft 266 kts 177°
2026-04-24 22:57 38.05329 -86.63642 28856 ft 266 kts 177°
2026-04-24 22:58 38.03495 -86.63278 28852 ft 266 kts 177°
2026-04-24 22:58 38.01716 -86.62925 28854 ft 266 kts 177°
2026-04-24 22:58 37.99834 -86.62551 28854 ft 266 kts 177°
2026-04-24 22:58 37.98003 -86.62188 28852 ft 266 kts 177°
2026-04-24 22:59 37.96172 -86.61825 28856 ft 266 kts 177°
2026-04-24 22:59 37.94364 -86.61467 28852 ft 266 kts 177°
2026-04-24 22:59 37.90702 -86.60742 28853 ft 266 kts 177°
2026-04-24 23:00 37.88864 -86.60379 28847 ft 266 kts 176°
2026-04-24 23:00 37.87031 -86.60016 28852 ft 267 kts 176°
2026-04-24 23:00 37.85197 -86.59654 28852 ft 267 kts 176°
2026-04-24 23:00 37.83357 -86.59291 28853 ft 267 kts 176°
2026-04-24 23:01 37.81541 -86.58932 28851 ft 267 kts 176°
2026-04-24 23:01 37.79697 -86.58569 28851 ft 267 kts 176°
2026-04-24 23:01 37.77858 -86.58206 28851 ft 267 kts 176°
2026-04-24 23:01 37.76021 -86.57843 28854 ft 267 kts 176°
2026-04-24 23:02 37.74177 -86.57480 28855 ft 268 kts 176°
2026-04-24 23:02 37.72333 -86.57117 28855 ft 268 kts 176°
2026-04-24 23:02 37.70491 -86.56755 28854 ft 268 kts 176°
2026-04-24 23:02 37.68645 -86.56396 28850 ft 268 kts 176°
2026-04-24 23:03 37.66795 -86.56028 28848 ft 269 kts 176°
2026-04-24 23:03 37.64966 -86.55667 28851 ft 270 kts 176°
2026-04-24 23:03 37.63106 -86.55303 28852 ft 271 kts 176°
2026-04-24 23:03 37.61238 -86.54937 28852 ft 272 kts 176°
2026-04-24 23:04 37.59368 -86.54570 28854 ft 272 kts 176°
2026-04-24 23:04 37.57493 -86.54202 28855 ft 272 kts 176°
2026-04-24 23:04 37.55619 -86.53834 28858 ft 273 kts 176°
2026-04-24 23:04 37.53744 -86.53467 28860 ft 273 kts 176°
2026-04-24 23:05 37.51869 -86.53100 28860 ft 273 kts 176°
2026-04-24 23:05 37.49989 -86.52732 28862 ft 273 kts 176°
2026-04-24 23:05 37.48129 -86.52368 28861 ft 273 kts 176°
2026-04-24 23:05 37.46246 -86.52000 28865 ft 273 kts 176°
2026-04-24 23:06 37.44391 -86.51637 28866 ft 273 kts 176°
2026-04-24 23:06 37.42509 -86.51270 28865 ft 273 kts 176°
2026-04-24 23:06 37.40627 -86.50903 28857 ft 274 kts 176°
2026-04-24 23:06 37.38734 -86.50534 28855 ft 275 kts 176°
2026-04-24 23:07 37.36841 -86.50164 28860 ft 275 kts 176°
2026-04-24 23:07 37.34949 -86.49795 28862 ft 276 kts 176°
2026-04-24 23:07 37.33046 -86.49425 28863 ft 276 kts 176°
2026-04-24 23:07 37.31148 -86.49055 28863 ft 276 kts 176°
2026-04-24 23:08 37.29248 -86.48685 28868 ft 276 kts 176°
2026-04-24 23:08 37.27348 -86.48315 28867 ft 276 kts 176°
2026-04-24 23:08 37.25444 -86.47945 28872 ft 277 kts 176°
2026-04-24 23:08 37.23540 -86.47576 28873 ft 277 kts 176°
2026-04-24 23:09 37.21660 -86.47210 28874 ft 277 kts 176°
2026-04-24 23:09 37.19755 -86.46840 28876 ft 277 kts 176°
2026-04-24 23:09 37.17855 -86.46472 28872 ft 277 kts 176°
2026-04-24 23:09 37.15949 -86.46102 28874 ft 277 kts 176°
2026-04-24 23:10 37.14040 -86.45732 28874 ft 277 kts 176°
2026-04-24 23:10 37.12132 -86.45362 28877 ft 278 kts 176°
2026-04-24 23:10 37.10223 -86.44993 28877 ft 278 kts 176°
2026-04-24 23:10 37.08313 -86.44623 28878 ft 278 kts 176°
2026-04-24 23:11 37.06394 -86.44252 28877 ft 278 kts 176°
2026-04-24 23:11 37.04503 -86.43887 28878 ft 279 kts 176°
2026-04-24 23:11 37.02589 -86.43517 28881 ft 279 kts 176°
2026-04-24 23:11 37.00667 -86.43145 28880 ft 279 kts 176°
2026-04-24 23:12 36.98747 -86.42775 28883 ft 279 kts 176°
2026-04-24 23:12 36.96826 -86.42401 28883 ft 278 kts 175°
2026-04-24 23:12 36.94944 -86.41759 28886 ft 280 kts 167°
2026-04-24 23:12 36.93081 -86.41027 28878 ft 280 kts 167°
2026-04-24 23:13 36.91218 -86.40307 28880 ft 280 kts 167°
2026-04-24 23:13 36.89376 -86.39600 28880 ft 281 kts 167°
2026-04-24 23:13 36.87507 -86.38879 28881 ft 281 kts 167°
2026-04-24 23:13 36.85637 -86.38157 28881 ft 281 kts 167°
2026-04-24 23:14 36.83762 -86.37433 28880 ft 281 kts 167°
2026-04-24 23:14 36.81891 -86.36713 28880 ft 281 kts 167°
2026-04-24 23:14 36.80017 -86.35992 28880 ft 282 kts 167°
2026-04-24 23:14 36.78142 -86.35270 28880 ft 282 kts 167°
2026-04-24 23:15 36.76266 -86.34548 28880 ft 282 kts 167°
2026-04-24 23:15 36.74405 -86.33832 28880 ft 282 kts 167°
2026-04-24 23:15 36.72542 -86.33116 28880 ft 282 kts 167°
2026-04-24 23:15 36.70667 -86.32396 28879 ft 282 kts 167°
2026-04-24 23:16 36.68788 -86.31674 28877 ft 282 kts 166°
2026-04-24 23:16 36.66909 -86.30953 28878 ft 282 kts 166°
2026-04-24 23:16 36.65032 -86.30233 28878 ft 282 kts 167°
2026-04-24 23:16 36.63153 -86.29513 28877 ft 282 kts 167°
2026-04-24 23:17 36.61275 -86.28793 28874 ft 282 kts 167°
2026-04-24 23:17 36.59396 -86.28074 28875 ft 282 kts 167°
2026-04-24 23:17 36.57517 -86.27355 28875 ft 283 kts 167°
2026-04-24 23:17 36.55635 -86.26634 28887 ft 283 kts 167°
2026-04-24 23:18 36.53752 -86.25914 28890 ft 283 kts 167°
2026-04-24 23:18 36.51871 -86.25195 28891 ft 283 kts 167°
2026-04-24 23:18 36.49990 -86.24477 28879 ft 283 kts 167°
2026-04-24 23:18 36.48133 -86.23768 28879 ft 283 kts 167°
2026-04-24 23:19 36.46253 -86.23050 28885 ft 283 kts 167°
2026-04-24 23:19 36.44374 -86.22334 28885 ft 283 kts 167°
2026-04-24 23:19 36.42487 -86.21615 28882 ft 282 kts 166°
2026-04-24 23:19 36.40606 -86.20898 28883 ft 283 kts 166°
2026-04-24 23:20 36.38722 -86.20180 28886 ft 283 kts 166°
2026-04-24 23:20 36.36838 -86.19463 28886 ft 283 kts 166°
2026-04-24 23:20 36.34953 -86.18746 28886 ft 283 kts 166°
2026-04-24 23:20 36.33068 -86.18029 28886 ft 283 kts 166°
2026-04-24 23:21 36.31202 -86.17320 28881 ft 284 kts 165°
2026-04-24 23:21 36.29312 -86.16602 28881 ft 284 kts 165°
2026-04-24 23:21 36.27422 -86.15884 28887 ft 285 kts 165°
2026-04-24 23:21 36.25522 -86.15163 28888 ft 285 kts 165°
2026-04-24 23:22 36.23623 -86.14443 28889 ft 285 kts 165°
2026-04-24 23:22 36.21723 -86.13723 28890 ft 286 kts 165°
2026-04-24 23:22 36.19821 -86.13002 28889 ft 286 kts 165°
2026-04-24 23:22 36.17922 -86.12283 28888 ft 286 kts 165°
2026-04-24 23:23 36.16012 -86.11559 28886 ft 286 kts 165°
2026-04-24 23:23 36.14101 -86.10837 28887 ft 287 kts 165°
2026-04-24 23:23 36.12194 -86.10116 28888 ft 287 kts 165°
2026-04-24 23:23 36.10305 -86.09401 28888 ft 287 kts 165°
2026-04-24 23:24 36.08390 -86.08678 28890 ft 287 kts 165°
2026-04-24 23:24 36.06476 -86.07956 28890 ft 287 kts 165°
2026-04-24 23:24 36.04562 -86.07233 28891 ft 287 kts 165°
2026-04-24 23:24 36.02650 -86.06512 28893 ft 288 kts 165°
2026-04-24 23:25 36.00731 -86.05788 28891 ft 288 kts 165°
2026-04-24 23:25 35.98814 -86.05066 28891 ft 288 kts 165°
2026-04-24 23:25 35.96900 -86.04345 28892 ft 288 kts 165°